FENGYUN 1C DEB

Satellite information

Favourite Embed

Satellite Type and Status

DEBRISIN ORBIT

Key statistics

Satellite FENGYUN 1C DEB at a glance.

Uptime

9498

Days in orbit

Revolutions

≈ 14.2

Per day

Orbit

SSO

Sun Synchronous Orbit

Inclination

98.9

Latest

Satellite identification and parameters

Extended collection of information and parameters for FENGYUN 1C DEB.

Object identification

Identified? True

Debris? True

Object name: FENGYUN 1C DEB

International designator: 1999-025AGF

Object number (NORAD): 30468

Object ID (CCSDS): 30468

Country: PEOPLES REPUBLIC OF CHINA (PRC)

Current information (Y/N): Y

RCS size: SMALL

Orbital parameters

Period: 101.469 minutes

Inclination: 98.9278 deg

SMA: 7206.367 km

Apoapsis: 880.469 km

Periapsis: 775.995 km

RAAN: 210.4402 deg

Eccentricy: 0.0072487

Argument of periapsis: 296.6001 deg

Mean anomaly: 187.0189 deg

Mean motion: 14.19149726 rev/day

Mean motion (dot): 0.00002846 rev/day2

B* drag term: 0.0013457 1/REarth

Two-line elements (TLE)

Creation date: May 11, 2025, 2:40 a.m.

Reference frame: TEME

Reference center: EARTH

Epoch: May 10, 2025, 5:54 p.m. UTC

TLE line 0: 0 FENGYUN 1C DEB

TLE line 1: 1 30468U 99025AGF 25130.74592863 .00002846 00000-0 13457-2 0 9993

TLE line 2: 2 30468 98.9278 210.4402 0072487 296.6001 187.0189 14.19149726937457

Live tracking on map

Real-time ground track for satellite FENGYUN 1C DEB.

In-orbit conjunctions

A list of the most updated potential collisions computed for object FENGYUN 1C DEB.

Target Orbit TCA Probability of collision Miss distance Type
CZ-6A DEB LEO 2025-02-06 12:50:55 0.004115716 47.0 (m) DEBRIS
THORAD AGENA D DEB LEO 2024-10-20 11:52:14 0.0001791945 9.0 (m) DEBRIS
COSMOS 1503 LEO 2024-06-23 02:02:15 0.0006192261 837.0 (m) PAYLOAD

Associated space launch

Chinese polar orbiting meteorological satellite

FENGYUN 1C DEB was lifted into orbit during the mission ‘Long March 4B | Feng Yun 1C’, on board a Long March 4B space rocket.

The launch took place on May 10, 1999, 1:33 a.m. from Launch Complex 7.

For more information about the launch, click the button.

Launch to space Long March 4B | Feng Yun 1C
Long March 4B | Feng Yun 1C

Agency: N/A

Status: Launch Successful

Launch date: May 10, 1999, 1:33 a.m. UTC

Rocket: Long March 4B

Launch pad: Launch Complex 7

Location: Taiyuan Satellite Launch Center, People's Republic of China

...

Latest news about this satellite

There are no fresh news available about this satellite. Check back as we update our databases every day.


Newsletter sign-up

Weekly statistics, charts and insights to help you stay on top of the space industry.